Regional Weather Roundup
Issued by NWS

Home | Current Version | Previous Version | Text Only | Print | Product List | Glossary Off
Versions: 1 2 3 4 5 6 7 8 9 10 11 12 13 14 15 16 17 18 19 20 21 22 23 24 25 26 27 28 29 30 31 32 33 34 35 36 37 38 39 40 41 42 43 44 45 46 47 48 49 50

000
ASUS43 KOAX 190310
RWRNE

WEATHER ROUNDUP FOR NEBRASKA
NATIONAL WEATHER SERVICE OMAHA NE
1000 PM CDT THU SEP 18 2014

NOTES: SATELLITE DATA IS BEING USED TO AUGMENT CLOUD COVER ABOVE
       12000 FEET.
       "FAIR" INDICATES FEW OR NO CLOUDS BELOW 12,000 FEET WITH NO
       SIGNIFICANT WEATHER AND/OR OBSTRUCTIONS TO VISIBILITY.

  * THESE STATIONS DO NOT REPORT WEATHER SUCH AS RAIN...SNOW OR FOG.

NEZ001>004-019>022-054>056-190400-
NEBRASKA PANHANDLE

CITY           SKY/WX    TMP DP  RH WIND       PRES   REMARKS
SCOTTSBLUFF    CLEAR     70  62  76 SE9       29.86R
ALLIANCE       CLEAR     65  62  90 S16       29.87R
CHADRON        CLEAR     75  62  64 S20       29.77R
KIMBALL        CLEAR     71  56  59 SE12      29.93R
SIDNEY         CLEAR     68  61  78 SE12      29.92S
$$

NEZ057>060-069>072-079>082-190400-
SOUTHWEST NEBRASKA

CITY           SKY/WX    TMP DP  RH WIND       PRES   REMARKS
NORTH PLATTE   CLEAR     57  56  96 SE6       29.91R
IMPERIAL       CLEAR     62  60  93 SE8       29.91R
LEXINGTON      FOG       61  60  97 E5        29.91S VSB 1/4
MCCOOK         CLEAR     62  61  96 E3        29.90S
OGALLALA       CLEAR     61  60  96 E5        29.91R
$$

NEZ005>010-023>029-035>040-094-190400-
NORTH CENTRAL NEBRASKA

CITY           SKY/WX    TMP DP  RH WIND       PRES   REMARKS
VALENTINE      PTCLDY    65  61  87 S9        29.84R
AINSWORTH      PTCLDY    64  61  91 S7        29.86S
BROKEN BOW     CLOUDY    68  65  90 SE8       29.91R
O`NEILL        CLOUDY    71  66  82 S14       29.88S
ORD            PTCLDY    67  64  90 SE6       29.89S
THEDFORD       CLOUDY    67  62  83 S10G20    29.90R
$$

NEZ041-046>049-061>064-073>077-083>087-190400-
SOUTH CENTRAL NEBRASKA

CITY           SKY/WX    TMP DP  RH WIND       PRES   REMARKS
GRAND ISLAND   CLEAR     68  63  84 SE9       29.91S
AURORA         CLEAR     67  65  91 SE10      29.92S
HASTINGS       CLEAR     68  61  78 SE13      29.91R
HEBRON         CLOUDY    65  61  86 SE13G18   29.95R
HOLDREGE       CLEAR     63  61  93 E3        29.90S
KEARNEY *      CLEAR     64  63  94 E9        29.91S
YORK           CLEAR     64  63  94 SE15      29.94R
$$

NEZ011>018-030>034-042>045-190400-
NORTHEAST NEBRASKA

CITY           SKY/WX    TMP DP  RH WIND       PRES   REMARKS
NORFOLK        PTCLDY    66  58  75 SE17      29.92S
ALBION         CLEAR     64  60  89 SE6       29.91S
BLAIR          CLEAR     64  57  78 SE8       29.97S
COLUMBUS *     CLEAR     64  57  77 SE13G22   29.95R
FREMONT        CLEAR     66  57  74 SE10      29.96S
TEKAMAH        CLEAR     63  56  78 SE8       29.97R
WAYNE          CLEAR     63  57  80 SE12      29.94R
$$

NEZ050>053-065>068-078-088>093-190400-
SOUTHEAST NEBRASKA

CITY           SKY/WX    TMP DP  RH WIND       PRES   REMARKS
LINCOLN        CLEAR     63  58  83 SE14      29.97R
OMAHA EPPLEY   CLEAR     65  57  75 SE14      29.98R
BEATRICE       CLOUDY    63  60  91 SE8       29.98R
FALLS CITY     CLEAR     60  58  92 SE6       30.00R
NEBRASKA CITY  CLEAR     60  58  93 S7        30.00S
PLATTSMOUTH    CLEAR     62  58  86 SE10      29.99R
$$

NEZ044-045-051>053-067-190400-
OMAHA AREA

CITY           SKY/WX    TMP DP  RH WIND       PRES   REMARKS
OMAHA EPPLEY   CLEAR     65  57  75 SE14      29.98R
BLAIR          CLEAR     64  57  78 SE8       29.97S
FREMONT        CLEAR     66  57  74 SE10      29.96S
MILLARD        CLEAR     64  59  82 SE10G16   29.98S
OFFUTT AFB     CLEAR     62  62  99 E10       29.98R
PLATTSMOUTH    CLEAR     62  58  86 SE10      29.99R
WAHOO          FAIR      63  57  82 SE10      29.96R
$$


USA.gov is the U.S. government's official web portal to all federal, state and local government web resources and services.